| time (UTC) | temp C | wind direction | speed KPH | gust KPH | rain 1hr cm | rain 24hr cm | rain mn cm | humidity % | barometer mb |
| 20260503034402 | 10 | 138 | 1.6 | 3.2 | 0.00 | 0.00 | 0.00 | 65 | 1018.5 |
| 20260503033403 | 10 | 138 | 4.8 | 6.4 | 0.00 | 0.00 | 0.00 | 65 | 1018.5 |
| 20260503032404 | 10 | 138 | 1.6 | 6.4 | 0.00 | 0.00 | 0.00 | 63 | 1018.5 |
| 20260503031357 | 11 | 138 | 3.2 | 6.4 | 0.00 | 0.00 | 0.00 | 63 | 1018.5 |
| 20260503030358 | 11 | 134 | 3.2 | 6.4 | 0.00 | 0.00 | 0.00 | 63 | 1018.5 |
| 20260503025356 | 11 | 61 | 1.6 | 4.8 | 0.00 | 0.00 | 0.00 | 62 | 1018.5 |
| 20260503024358 | 11 | 74 | 1.6 | 4.8 | 0.00 | 0.00 | 0.00 | 62 | 1018.5 |
| 20260503023356 | 11 | 147 | 1.6 | 6.4 | 0.00 | 0.00 | 0.00 | 62 | 1018.6 |
| 20260503022357 | 11 | 148 | 0.0 | 3.2 | 0.00 | 0.00 | 0.00 | 61 | 1018.6 |
| 20260503021354 | 11 | 148 | 3.2 | 4.8 | 0.00 | 0.00 | 0.00 | 61 | 1018.6 |
| 20260503020354 | 11 | 148 | 1.6 | 3.2 | 0.00 | 0.00 | 0.00 | 59 | 1018.7 |
| 20260503015353 | 11 | 148 | 1.6 | 4.8 | 0.00 | 0.00 | 0.00 | 59 | 1018.6 |
| 20260503014347 | 11 | 148 | 3.2 | 4.8 | 0.00 | 0.00 | 0.00 | 61 | 1018.7 |
| 20260503013347 | 11 | 148 | 1.6 | 8.0 | 0.00 | 0.00 | 0.00 | 60 | 1018.7 |
| 20260503012346 | 11 | 148 | 4.8 | 9.7 | 0.00 | 0.00 | 0.00 | 59 | 1018.6 |
| 20260503010344 | 11 | 217 | 1.6 | 3.2 | 0.00 | 0.00 | 0.00 | 59 | 1018.9 |
| 20260503005343 | 11 | 217 | 1.6 | 4.8 | 0.00 | 0.00 | 0.00 | 59 | 1019.0 |
| 20260503003340 | 12 | 219 | 0.0 | 0.0 | 0.00 | 0.00 | 0.00 | 57 | 1019.3 |
| 20260503002338 | 12 | 219 | 0.0 | 1.6 | 0.00 | 0.00 | 0.00 | 55 | 1019.4 |
| 20260503001337 | 12 | 219 | 0.0 | 0.0 | 0.00 | 0.00 | 0.00 | 55 | 1019.4 |
| 20260503000339 | 13 | 217 | 0.0 | 3.2 | 0.00 | 0.00 | 0.00 | 54 | 1019.5 |
| 20260502235337 | 13 | 217 | 1.6 | 3.2 | 0.00 | 0.00 | 0.00 | 53 | 1019.5 |
| 20260502234342 | 13 | 217 | 0.0 | 0.0 | 0.00 | 0.00 | 0.00 | 51 | 1019.6 |
| 20260502232338 | 14 | 217 | 0.0 | 0.0 | 0.00 | 0.00 | 0.00 | 50 | 1019.8 |
| 20260502231339 | 14 | 217 | 0.0 | 0.0 | 0.00 | 0.00 | 0.00 | 49 | 1019.8 |
| 20260502225337 | 15 | 217 | 3.2 | 8.0 | 0.00 | 0.00 | 0.00 | 47 | 1019.8 |
| 20260502224339 | 15 | 221 | 3.2 | 6.4 | 0.00 | 0.00 | 0.00 | 47 | 1019.8 |
| 20260502223337 | 15 | 199 | 3.2 | 4.8 | 0.00 | 0.00 | 0.00 | 47 | 1019.8 |
| 20260502222339 | 15 | 194 | 3.2 | 4.8 | 0.00 | 0.00 | 0.00 | 48 | 1019.8 |
| 20260502221338 | 14 | 194 | 3.2 | 4.8 | 0.00 | 0.00 | 0.00 | 49 | 1019.9 |
| 20260502220333 | 14 | 194 | 1.6 | 4.8 | 0.00 | 0.00 | 0.00 | 49 | 1019.9 |
| 20260502214330 | 15 | 199 | 1.6 | 4.8 | 0.00 | 0.00 | 0.00 | 48 | 1019.8 |
| 20260502213330 | 15 | 200 | 3.2 | 6.4 | 0.00 | 0.00 | 0.00 | 47 | 1019.8 |
| 20260502212330 | 15 | 234 | 3.2 | 6.4 | 0.00 | 0.00 | 0.00 | 46 | 1019.9 |
| 20260502205330 | 15 | 240 | 0.0 | 0.0 | 0.00 | 0.00 | 0.00 | 49 | 1019.9 |
| 20260502202330 | 16 | 240 | 0.0 | 1.6 | 0.00 | 0.00 | 0.00 | 46 | 1019.9 |
| 20260502201328 | 16 | 240 | 0.0 | 3.2 | 0.00 | 0.00 | 0.00 | 45 | 1019.9 |
| 20260502200327 | 16 | 240 | 0.0 | 1.6 | 0.00 | 0.00 | 0.00 | 44 | 1019.9 |
| 20260502195327 | 16 | 240 | 1.6 | 4.8 | 0.00 | 0.00 | 0.00 | 43 | 1019.8 |
| 20260502194329 | 17 | 241 | 0.0 | 0.0 | 0.00 | 0.00 | 0.00 | 43 | 1019.8 |
| 20260502193327 | 17 | 241 | 0.0 | 0.0 | 0.00 | 0.00 | 0.00 | 39 | 1019.6 |
| 20260502192329 | 17 | 241 | 0.0 | 0.0 | 0.00 | 0.00 | 0.00 | 38 | 1019.6 |
| 20260502191325 | 17 | 241 | 0.0 | 0.0 | 0.00 | 0.00 | 0.00 | 39 | 1019.6 |
| 20260502190326 | 18 | 241 | 0.0 | 0.0 | 0.00 | 0.00 | 0.00 | 36 | 1019.6 |
| 20260502184326 | 19 | 241 | 3.2 | 6.4 | 0.00 | 0.00 | 0.00 | 32 | 1019.5 |
| 20260502183325 | 20 | 239 | 3.2 | 6.4 | 0.00 | 0.00 | 0.00 | 32 | 1019.5 |
| 20260502182326 | 20 | 258 | 4.8 | 11.3 | 0.00 | 0.00 | 0.00 | 32 | 1019.6 |
| 20260502181325 | 20 | 242 | 3.2 | 11.3 | 0.00 | 0.00 | 0.00 | 42 | 1019.5 |
| 20260502180325 | 20 | 311 | 1.6 | 3.2 | 0.00 | 0.00 | 0.00 | 46 | 1019.5 |
| 20260502170320 | 21 | 284 | 4.8 | 11.3 | 0.00 | 0.00 | 0.00 | 44 | 1019.5 |
| 20260502164320 | 21 | 299 | 9.7 | 14.5 | 0.00 | 0.00 | 0.00 | 42 | 1019.5 |
| 20260502163318 | 21 | 275 | 9.7 | 14.5 | 0.00 | 0.00 | 0.00 | 44 | 1019.6 |
| 20260502162320 | 21 | 280 | 8.0 | 14.5 | 0.00 | 0.00 | 0.00 | 42 | 1019.7 |
| 20260502160317 | 21 | 281 | 11.3 | 14.5 | 0.00 | 0.00 | 0.00 | 39 | 1020.0 |
| 20260502151316 | 21 | 249 | 11.3 | 19.3 | 0.00 | 0.00 | 0.00 | 39 | 1020.3 |
| 20260502150318 | 22 | 259 | 11.3 | 16.1 | 0.00 | 0.00 | 0.00 | 39 | 1020.4 |
| 20260502130312 | 22 | 101 | 4.8 | 12.9 | 0.00 | 0.00 | 0.00 | 40 | 1021.6 |
| 20260502123310 | 21 | 338 | 4.8 | 12.9 | 0.00 | 0.00 | 0.00 | 46 | 1021.9 |
| 20260502122312 | 21 | 311 | 9.7 | 19.3 | 0.00 | 0.00 | 0.00 | 43 | 1022.0 |
| 20260502115309 | 21 | 280 | 8.0 | 14.5 | 0.00 | 0.00 | 0.00 | 48 | 1022.4 |
| 20260502113309 | 20 | 288 | 4.8 | 14.5 | 0.00 | 0.00 | 0.00 | 46 | 1022.6 |
| 20260502111307 | 21 | 292 | 3.2 | 17.7 | 0.00 | 0.00 | 0.00 | 44 | 1022.9 |
| 20260502105306 | 20 | 262 | 8.0 | 12.9 | 0.00 | 0.00 | 0.00 | 45 | 1023.2 |
| 20260502104308 | 20 | 257 | 11.3 | 17.7 | 0.00 | 0.00 | 0.00 | 47 | 1023.3 |
| 20260502102307 | 19 | 326 | 6.4 | 14.5 | 0.00 | 0.00 | 0.00 | 50 | 1023.6 |
| 20260502101308 | 19 | 330 | 6.4 | 12.9 | 0.00 | 0.00 | 0.00 | 49 | 1023.9 |
| 20260502090302 | 18 | 296 | 3.2 | 6.4 | 0.00 | 0.00 | 0.00 | 47 | 1024.5 |
| 20260502071257 | 15 | 170 | 0.0 | 0.0 | 0.00 | 0.00 | 0.00 | 56 | 1025.2 |
| 20260502070251 | 15 | 169 | 0.0 | 0.0 | 0.00 | 0.00 | 0.00 | 56 | 1025.2 |
| 20260502065251 | 15 | 169 | 0.0 | 0.0 | 0.00 | 0.00 | 0.00 | 58 | 1025.2 |
| 20260502064250 | 14 | 169 | 0.0 | 0.0 | 0.00 | 0.00 | 0.00 | 59 | 1025.2 |
| 20260502063250 | 13 | 169 | 0.0 | 0.0 | 0.00 | 0.00 | 0.00 | 59 | 1025.2 |
| 20260502062251 | 13 | 169 | 0.0 | 0.0 | 0.00 | 0.00 | 0.00 | 59 | 1025.1 |
| 20260502060250 | 13 | 169 | 0.0 | 0.0 | 0.00 | 0.00 | 0.00 | 61 | 1025.1 |
| 20260502055250 | 12 | 169 | 0.0 | 0.0 | 0.00 | 0.00 | 0.00 | 63 | 1025.1 |
| 20260502054251 | 12 | 169 | 0.0 | 0.0 | 0.00 | 0.00 | 0.00 | 64 | 1025.1 |
| 20260502053248 | 11 | 169 | 0.0 | 0.0 | 0.00 | 0.00 | 0.00 | 65 | 1025.1 |
| 20260502052249 | 11 | 169 | 0.0 | 0.0 | 0.00 | 0.00 | 0.00 | 64 | 1025.0 |
| 20260502051249 | 11 | 169 | 0.0 | 0.0 | 0.00 | 0.00 | 0.00 | 64 | 1025.0 |
| 20260502050249 | 11 | 169 | 0.0 | 0.0 | 0.00 | 0.00 | 0.00 | 64 | 1024.9 |
| 20260502045247 | 10 | 169 | 0.0 | 0.0 | 0.00 | 0.00 | 0.00 | 65 | 1024.9 |
| 20260502043247 | 10 | 169 | 0.0 | 0.0 | 0.00 | 0.00 | 0.00 | 65 | 1024.9 |
| 20260502042245 | 10 | 169 | 0.0 | 0.0 | 0.00 | 0.00 | 0.00 | 65 | 1024.9 |
| 20260502041244 | 10 | 169 | 0.0 | 0.0 | 0.00 | 0.00 | 0.00 | 63 | 1025.0 |
| 20260502040243 | 11 | 169 | 0.0 | 0.0 | 0.00 | 0.00 | 0.00 | 63 | 1024.9 |
| 20260502035240 | 11 | 169 | 0.0 | 0.0 | 0.00 | 0.00 | 0.00 | 62 | 1024.8 |